Location: Eitze
(52.9840°N, 9.6894°E)
Time: 19:46:39
(UTC+00:00)

Cosmos 1238 Rocket - Pass Details

Date: 19 May 2025
Orbit: 356 x 776 km, 82.9° (Epoch: 20 June)

Event Time Altitude Azimuth Distance (km) Brightness Sun altitude
Exits shadow 21:23:03 16° 190° (S) 1,366 4.4 -12.9°
Maximum altitude 21:25:55 87° 276° (W) 462 2.4 -13.1°
Drops below altitude 10° 21:29:12 10° 10° (N) 1,511 5.9 -13.3°
Sets 21:31:06 0° 10° (N) 2,329 7.0 -13.5°
